Location: Chiroubles
(46.1812°N, 4.6660°E)
Time: 06:31:47
(UTC+00:00)

Transit 4A - Pass Details

Date: 08 December 2020
Orbit: 864 x 980 km, 66.8° (Epoch: 25 January)

Event Time Altitude Azimuth Distance (km) Brightness Sun altitude
Rises 11:07:30 0° 323° (NW) 3,691 10.5 20.8°
Reaches altitude 10° 11:11:37 10° 348° (NNW) 2,734 9.8 20.9°
Maximum altitude 11:14:48 14° 18° (NNE) 2,442 9.7 20.9°
Drops below altitude 10° 11:17:59 10° 49° (NE) 2,709 10.1 20.9°
Sets 11:22:01 0° 74° (ENE) 3,631 10.9 21.0°
